Wind_Speed
40 43 44 46 47 47 47 47 48 48 49 50 51 52 53 55 56 58 59 60 62 63 64 64 65 66 66 67 67 68 68 69 70 71 72 73 74 75 76 77 78 79 80 81 82 83 84 85 85 86 87 87 88 89 89 90 90 91 91 91 91 91 91 91 92 92 92 92 92 92 93 92 92 92 91 90 89 88 88 88 87 86 85 84 84 83 81 80
34 37 39 41 43 45 46 47 47 47 48 48 49 49 50 51 52 54 55 56 58 59 60 61 61 62 62 62 63 63 64 64 65 66 67 68 69 70 71 72 72 74 75 75 77 78 79 80 81 81 82 83 84 84 85 86 86 87 88 88 89 89 89 89 90 90 91 90 90 91 91 91 91 91 91 90 88 87 86 86 86 85 84 83 83 82 80 80
26 29 33 36 38 40 42 44 45 46 47 47 48 48 49 49 50 51 52 53 54 55 56 57 57 58 58 59 59 60 60 61 62 62 63 64 64 65 65 66 67 68 69 70 71 72 73 74 75 76 77 78 78 79 80 81 82 83 84 84 85 86 86 87 88 88 89 89 88 89 90 90 90 90 90 89 88 87 86 85 85 84 83 82 81 81 80 79
17 21 25 29 33 36 38 40 42 44 45 46 47 48 48 48 49 49 50 50 51 51 52 53 53 54 55 56 56 57 58 58 59 60 61 61 61 62 63 63 64 65 66 67 68 69 70 70 71 72 73 74 75 76 77 78 78 80 81 81 82 83 83 84 85 86 87 87 87 87 88 89 89 89 89 88 88 88 87 85 84 84 83 82 81 81 80 79
9 13 17 22 26 29 33 36 38 41 42 44 45 46 46 47 47 47 48 48 48 48 49 50 50 51 51 52 53 54 54 55 56 57 58 58 59 60 61 62 63 64 64 65 66 67 68 69 70 71 72 72 74 75 75 76 77 78 79 80 81 81 82 83 83 84 85 85 85 86 86 87 88 88 88 88 87 87 87 85 84 84 82 82 81 80 79 79
6 4 8 13 18 22 26 29 32 35 37 40 41 42 43 44 44 45 45 46 46 47 47 47 48 48 49 49 49 50 51 52 53 54 54 55 56 57 58 59 60 61 62 63 64 65 66 67 68 69 70 71 73 74 75 76 77 78 79 80 81 82 82 83 83 84 84 85 85 85 85 86 86 87 88 87 87 86 86 86 85 84 83 81 81 80 79 79
17 13 9 4 6 12 17 21 24 26 29 31 34 36 38 39 40 41 42 43 43 44 45 45 45 46 46 46 46 47 48 49 50 50 51 52 53 54 55 56 57 57 58 59 60 61 62 63 64 65 66 68 69 71 72 74 75 76 78 79 80 81 82 83 84 84 85 85 86 86 86 86 86 87 88 87 87 86 86 86 85 84 83 82 81 80 79 79
28 25 22 18 12 7 4 8 12 16 18 20 22 24 27 29 32 34 37 38 40 41 42 43 43 43 44 43 43 44 45 46 47 48 48 49 50 51 51 52 53 54 55 56 57 58 58 60 61 62 63 64 66 67 69 70 72 73 74 76 77 78 80 81 82 83 84 85 86 87 87 87 87 88 88 88 88 87 86 86 85 84 83 82 81 80 80 79
39 36 33 30 27 23 18 13 9 5 4 5 7 9 11 14 17 21 24 28 31 33 35 37 38 39 39 39 39 40 42 44 44 45 46 46 47 48 49 50 51 52 53 54 55 56 57 58 59 60 61 63 64 66 68 69 71 72 73 74 76 77 79 80 81 82 83 84 85 86 87 88 88 89 89 89 89 89 88 87 86 85 84 83 82 81 80 79
49 46 43 41 38 35 32 29 25 21 18 14 11 8 5 3 3 5 8 12 15 19 22 25 27 29 31 32 33 35 37 39 40 41 42 42 43 44 45 46 47 48 48 50 50 51 52 54 55 56 57 59 60 62 64 65 67 69 70 72 73 75 77 79 80 82 83 84 85 85 86 87 88 89 89 90 90 91 90 89 88 87 85 84 83 81 80 79
56 53 51 49 46 43 41 38 35 33 30 28 25 21 18 15 11 8 5 2 2 4 7 10 13 16 18 20 22 25 27 29 31 32 33 34 35 36 37 38 39 40 41 42 43 44 45 47 48 49 50 51 53 55 57 59 61 63 64 66 68 70 73 75 77 79 81 82 84 85 86 87 88 89 89 89 90 90 91 90 89 88 87 86 85 83 82 80
64 61 58 56 53 50 47 44 42 40 39 37 34 31 29 25 22 19 15 13 10 7 5 2 1 2 4 6 7 11 14 16 18 20 21 22 23 25 26 27 28 30 31 32 34 35 36 38 40 41 42 44 45 47 50 51 53 55 57 59 62 64 66 69 71 73 75 77 80 81 83 85 87 88 89 90 90 90 90 90 90 89 88 88 87 85 84 82
73 70 68 66 64 61 58 55 52 50 48 46 43 40 37 34 31 29 27 25 23 20 16 14 13 10 8 10 10 9 8 8 9 10 12 12 14 15 16 18 19 21 22 24 25 26 28 30 31 33 34 36 37 40 42 45 47 50 52 54 56 58 60 62 64 66 68 70 73 75 77 80 83 84 86 88 90 90 91 91 90 89 89 88 88 87 86 84
76 75 75 74 73 71 69 67 65 63 61 59 56 53 50 47 44 42 41 40 38 34 27 24 22 19 22 24 21 18 16 15 14 14 14 14 14 15 16 16 17 18 19 20 20 20 21 22 24 26 27 28 29 31 33 36 38 42 45 48 51 53 56 58 60 61 62 64 66 68 70 74 76 78 80 83 86 88 89 90 91 90 89 89 88 88 87 86
77 77 76 76 75 75 74 73 71 70 69 67 65 62 60 57 54 53 51 49 48 44 39 37 34 34 38 35 30 29 27 25 25 25 25 25 25 25 24 25 25 26 27 27 27 27 28 29 29 29 29 28 29 29 30 31 33 34 36 39 41 45 48 52 56 58 60 61 62 62 64 66 69 71 73 76 79 82 84 87 89 90 90 90 89 88 88 87
76 76 76 76 75 75 74 73 73 72 71 70 68 67 64 62 60 59 57 56 56 53 51 49 47 49 46 38 34 35 33 32 33 32 31 31 30 29 29 30 31 32 33 33 34 35 35 34 34 33 32 32 32 32 32 32 33 33 34 35 35 37 39 43 47 51 55 58 60 61 61 62 62 64 66 69 72 75 77 80 84 87 89 90 90 89 88 88
76 75 75 75 74 73 72 72 71 70 69 69 68 67 65 64 63 62 61 62 61 59 57 54 53 54 44 36 37 38 37 37 36 34 33 32 30 29 29 29 30 32 33 33 33 34 35 35 33 31 31 31 32 33 33 34 35 35 35 36 36 37 37 39 40 43 47 50 53 56 59 60 60 59 60 62 65 67 70 73 77 80 84 87 89 90 89 88
77 77 76 75 74 73 72 71 70 70 69 68 66 65 65 63 62 61 61 60 60 59 56 55 56 52 44 42 44 43 42 42 41 40 39 37 36 35 33 31 30 28 27 27 26 28 30 30 27 26 29 31 32 33 33 33 33 33 34 34 35 36 37 38 39 41 43 45 47 49 51 54 57 57 57 56 58 60 63 65 69 73 77 81 85 88 89 89
80 79 78 77 76 75 74 73 72 72 71 69 67 66 65 63 63 62 60 60 61 59 56 56 55 50 47 48 48 46 47 46 46 45 44 44 45 44 43 42 39 35 36 38 38 35 30 29 31 31 31 31 30 30 30 30 30 30 29 29 30 31 32 33 35 37 39 42 44 45 46 48 50 52 54 53 52 54 57 59 62 66 70 74 78 82 85 88
80 80 80 79 78 77 76 75 75 74 74 72 70 69 68 66 66 65 63 64 64 61 59 58 55 52 51 51 50 51 51 50 49 48 48 49 48 48 47 46 44 44 47 47 47 46 46 50 50 45 41 37 34 32 30 29 28 29 29 28 27 27 27 27 28 30 32 35 38 40 42 44 45 45 46 48 48 48 50 53 56 59 62 66 70 74 79 83
81 80 80 79 79 79 78 77 77 76 76 75 73 71 70 70 69 67 67 69 67 64 63 60 58 56 56 56 56 56 55 54 54 54 54 53 52 52 52 51 52 54 54 52 52 53 55 55 51 47 47 46 45 44 42 40 38 35 33 31 29 28 27 26 26 26 27 28 31 33 34 36 39 41 40 41 42 42 44 47 49 53 57 60 64 68 73 77
79 79 79 79 79 79 79 79 78 77 77 76 74 73 73 72 72 71 71 71 68 67 66 64 62 61 60 60 60 60 59 59 58 58 58 57 56 57 57 57 58 58 57 57 58 58 58 55 52 52 52 50 49 48 48 48 48 47 45 43 38 34 32 30 29 28 27 28 29 30 30 30 31 34 35 35 36 37 38 42 45 48 51 54 58 62 66 71
77 78 78 78 78 79 79 79 78 78 77 77 75 75 74 74 74 73 72 71 70 69 68 67 66 65 64 63 63 63 63 63 63 62 61 61 59 60 61 62 62 62 61 62 62 61 60 57 56 57 56 56 55 54 53 52 52 51 51 51 50 47 43 38 35 33 32 32 31 31 31 30 28 27 29 30 30 31 33 36 40 43 45 49 53 56 60 64
76 76 76 76 77 77 77 77 77 76 76 76 75 75 75 74 74 73 72 71 71 70 69 69 69 68 68 67 67 67 66 66 66 65 65 63 62 61 61 63 64 65 65 65 65 65 63 62 61 61 59 59 58 58 58 58 57 56 55 54 54 55 54 51 46 40 37 36 35 34 32 31 30 28 26 25 25 26 27 31 35 38 41 45 49 52 54 58
73 74 74 74 74 74 74 74 74 74 74 74 73 73 73 73 72 72 72 71 70 69 69 69 69 69 70 71 70 69 69 69 69 68 68 66 65 64 63 63 64 65 67 68 69 70 69 67 66 65 64 63 62 62 62 61 61 61 60 59 58 57 57 58 57 52 47 42 39 37 35 32 30 29 26 23 21 21 22 24 29 32 36 40 43 47 50 52
70 71 71 72 72 72 72 72 72 72 72 72 72 72 71 71 70 70 70 70 69 68 68 68 68 68 70 71 71 71 71 71 70 70 68 68 68 68 68 67 66 66 67 69 71 73 73 72 71 69 68 68 67 66 65 64 63 63 63 62 62 61 59 58 58 58 56 52 46 41 38 36 33 29 26 23 19 17 17 19 23 27 30 34 38 41 45 48
67 68 68 68 69 69 70 70 70 70 70 70 70 70 70 70 70 69 69 69 67 67 67 67 66 66 68 69 70 71 71 71 71 70 68 68 69 69 70 70 69 69 68 69 70 72 74 75 75 74 73 72 71 70 68 67 65 65 65 64 64 63 62 61 60 59 58 58 56 51 45 41 38 35 30 24 19 16 15 15 18 21 25 29 32 36 39 43
65 65 66 66 66 66 66 67 67 67 67 67 68 68 68 69 69 69 69 68 67 67 67 66 66 66 66 66 67 68 68 69 70 69 69 69 69 69 69 70 70 70 70 71 71 72 74 76 78 79 78 76 73 70 70 69 68 67 66 66 65 65 64 63 63 62 60 58 58 57 54 48 44 41 36 30 23 17 13 13 14 16 20 23 27 31 34 38
63 63 63 63 64 64 64 65 65 65 65 66 66 66 66 66 67 68 68 68 67 68 68 67 67 67 67 66 66 66 67 67 67 68 68 69 69 69 69 69 69 70 71 72 72 72 73 74 75 78 79 78 76 73 71 70 70 69 69 68 66 66 66 65 64 63 62 61 59 57 56 55 52 48 42 36 30 24 17 12 11 12 15 18 22 26 30 34
61 61 61 62 62 62 63 63 63 64 65 65 65 65 65 65 65 66 67 66 67 68 68 68 69 69 69 69 68 67 67 66 66 67 67 67 67 68 68 69 69 70 71 72 72 72 72 72 72 74 77 79 80 78 74 71 70 70 70 70 68 67 67 67 66 64 62 62 61 59 57 56 56 55 50 44 37 31 25 19 14 11 12 15 18 21 25 29
56 57 58 59 59 60 60 60 60 61 62 62 62 63 63 63 64 64 64 64 65 66 67 68 68 68 69 69 69 68 68 67 67 67 67 67 66 66 67 68 70 71 72 72 73 73 73 71 70 70 73 77 80 81 80 76 72 70 69 69 70 69 68 67 66 65 63 61 61 60 59 58 57 56 55 52 46 38 31 26 21 17 13 13 15 18 21 25
50 51 52 53 54 55 56 56 57 57 57 58 59 59 60 60 61 61 61 62 62 62 63 64 65 66 67 68 68 69 69 68 68 68 67 68 68 67 67 68 69 70 71 72 73 73 73 73 72 70 69 72 76 80 82 81 77 74 71 70 69 68 67 66 65 65 64 62 60 60 59 59 58 56 55 54 52 47 40 32 26 22 18 15 14 16 18 21
48 48 48 49 49 50 51 52 53 54 54 55 55 56 57 57 58 58 59 60 60 60 61 61 62 63 64 65 65 66 67 67 68 68 69 69 69 69 68 68 68 68 69 70 72 73 74 74 73 71 69 69 71 76 80 83 83 80 77 74 71 68 66 66 65 65 65 63 61 59 58 58 58 57 55 54 52 51 48 41 32 26 22 19 16 15 17 19
47 47 47 48 48 48 48 48 49 49 50 51 52 53 53 54 55 55 56 57 58 59 60 60 60 61 61 62 63 63 64 65 65 66 67 68 68 68 68 67 68 68 68 69 70 71 73 74 74 73 71 69 70 72 77 81 84 84 83 80 77 74 71 69 67 65 65 65 63 60 58 57 56 56 55 54 53 51 49 47 42 34 27 21 18 17 16 17
48 48 48 47 47 47 47 47 47 47 48 48 49 50 50 51 52 53 53 54 55 56 57 58 59 59 59 60 61 61 62 62 63 64 64 65 66 67 67 67 67 68 68 68 68 69 71 73 74 75 74 72 71 71 74 78 81 84 85 83 80 78 75 71 69 67 64 63 64 62 60 58 57 55 54 53 53 51 49 47 46 43 36 29 22 18 17 17
48 49 49 49 48 47 47 47 46 47 47 47 48 48 48 49 50 50 51 52 52 53 55 56 56 57 57 58 59 60 60 61 62 62 63 64 65 66 67 67 66 67 67 68 67 68 69 71 73 75 75 74 73 72 73 75 78 82 84 84 83 81 79 74 69 67 65 62 61 62 61 59 57 55 54 53 51 50 49 48 46 45 43 39 32 24 20 18
44 45 46 47 48 48 48 47 47 46 46 46 46 46 47 48 48 49 49 50 51 51 52 53 54 55 56 56 57 58 59 60 61 62 62 63 64 64 65 66 66 66 66 67 67 67 68 69 72 74 75 76 75 74 74 75 77 80 82 83 84 83 82 79 73 67 64 63 60 59 59 59 57 56 54 53 51 50 49 47 46 45 43 42 40 35 28 22
42 43 43 44 45 45 46 46 47 46 45 45 44 45 46 46 46 46 47 48 49 49 50 51 51 52 54 55 56 57 58 59 60 61 62 62 63 63 64 65 66 65 65 65 66 67 67 68 70 72 74 75 76 76 76 76 77 79 82 84 84 83 82 83 80 72 66 63 60 57 58 58 57 57 55 53 51 50 49 48 46 44 43 42 41 40 36 31
41 42 42 43 44 44 43 43 44 44 45 45 44 44 44 44 44 45 45 46 46 47 48 49 49 50 51 53 55 56 57 58 60 61 61 62 62 63 63 64 65 65 64 64 65 66 66 66 68 70 72 73 75 76 77 77 77 78 81 83 85 85 84 84 85 81 72 66 62 57 55 57 56 56 55 53 51 50 48 48 47 45 44 42 40 39 39 38
40 41 41 42 43 43 43 43 42 42 42 43 43 43 43 43 43 44 44 45 45 45 46 47 48 49 50 52 54 55 56 57 59 60 61 61 62 63 63 63 63 64 64 63 64 65 66 67 68 70 72 73 74 75 76 77 77 78 80 82 84 86 86 86 86 87 80 72 67 60 53 53 54 53 54 54 52 50 48 46 46 46 45 44 42 40 39 38
38 39 40 41 41 41 42 42 42 42 41 41 41 41 42 42 43 43 44 45 45 46 46 47 48 50 51 52 53 54 55 56 58 59 60 61 62 62 62 62 63 63 63 63 64 65 66 68 69 70 72 73 73 74 75 77 78 78 79 81 83 85 87 87 86 88 87 79 72 66 57 52 52 51 51 53 52 51 50 47 45 45 45 44 44 42 41 39
36 36 38 39 39 39 40 41 42 42 42 42 42 42 41 41 41 42 43 44 45 46 46 47 48 49 51 53 53 54 55 55 56 58 59 60 61 62 62 62 62 62 62 63 64 65 67 69 70 71 71 72 73 74 75 76 77 78 79 80 82 84 87 89 88 88 89 85 77 72 63 55 52 51 50 50 51 51 51 49 46 44 43 43 42 42 42 41
34 34 35 36 36 37 38 39 40 41 42 43 44 45 44 43 42 41 41 43 44 46 46 47 48 49 51 52 54 55 56 56 56 57 58 60 60 61 62 62 62 62 61 62 63 65 67 68 70 71 72 73 74 74 74 74 75 77 78 79 80 83 85 89 90 89 90 89 82 76 70 60 53 52 50 48 48 48 49 50 48 45 44 43 42 40 40 40
31 32 32 33 34 35 36 36 37 38 39 41 43 45 46 45 44 43 42 42 43 46 47 47 48 49 51 53 54 55 56 57 57 57 58 60 61 61 62 63 63 62 62 62 63 64 67 67 67 67 69 71 72 73 73 73 74 75 76 77 78 81 84 87 90 90 91 92 87 80 75 66 56 53 51 49 47 47 47 48 48 47 45 44 43 41 39 38
29 30 30 31 33 34 34 35 36 37 38 39 41 44 45 46 45 44 44 43 43 45 47 48 48 49 51 53 54 54 55 56 57 58 58 59 61 61 62 63 64 63 62 63 63 65 67 69 68 67 68 70 72 73 73 74 75 75 76 76 77 79 83 86 89 91 91 92 91 84 78 71 63 56 52 50 48 47 46 46 47 47 46 45 44 43 41 38
28 29 29 30 31 33 34 34 35 36 38 39 40 42 44 45 45 44 44 44 44 46 48 49 49 49 50 52 54 54 55 55 56 57 58 58 60 61 61 63 64 64 63 63 64 65 68 70 70 71 71 73 74 75 75 75 76 77 76 77 77 78 82 86 88 91 92 92 92 88 79 72 66 61 55 52 50 49 48 47 47 46 46 46 45 44 43 41
27 28 29 29 29 31 33 34 34 36 38 39 40 42 44 45 45 45 44 44 45 47 48 49 49 49 50 52 54 55 56 55 56 56 57 58 59 60 60 61 64 66 65 64 64 66 68 70 71 72 73 74 75 76 77 76 77 79 78 77 78 79 82 86 88 91 93 93 93 91 83 73 66 62 57 53 51 50 49 48 48 47 47 46 45 45 44 44
28 29 29 29 29 30 32 34 35 35 37 40 41 42 43 44 45 45 45 45 45 46 48 49 49 50 50 52 54 56 58 57 57 57 57 57 58 59 59 60 63 66 65 64 65 65 67 69 71 73 74 75 76 77 77 77 78 80 80 79 79 80 82 85 88 91 93 94 95 93 85 75 67 63 59 54 50 50 49 48 48 48 47 47 46 46 45 45
29 30 31 31 31 30 31 34 35 36 37 40 41 42 43 44 45 45 45 45 45 45 47 48 49 49 50 52 53 56 58 59 59 59 58 58 58 58 58 58 61 65 65 63 64 65 66 68 69 71 73 75 76 77 77 78 79 81 81 81 80 81 82 85 88 91 93 95 97 95 87 77 69 64 60 55 51 49 49 48 48 48 47 47 46 46 46 45
30 31 31 32 33 32 32 33 36 37 37 39 41 43 43 43 44 45 45 45 45 45 46 47 48 49 50 52 53 55 58 60 61 61 60 59 58 57 58 57 59 63 66 64 63 65 67 67 68 69 72 74 75 76 77 79 80 81 82 82 82 82 83 85 89 93 94 95 97 96 88 79 72 65 61 57 53 50 49 48 49 49 48 47 46 46 46 46
31 31 31 32 33 34 33 33 35 37 38 40 41 42 43 44 44 45 45 45 45 45 45 46 48 49 49 51 53 56 59 60 62 62 62 61 60 59 58 58 58 61 65 64 64 66 67 67 67 68 70 72 74 74 76 79 80 81 82 83 83 82 83 85 90 94 96 97 99 97 90 81 74 67 62 58 55 52 50 49 49 49 49 48 47 46 46 45
31 31 32 32 33 35 35 35 36 36 37 40 41 42 43 44 45 46 46 45 46 45 45 45 47 48 49 51 53 56 59 61 62 63 63 63 63 62 61 60 59 61 64 65 64 66 68 68 67 67 69 72 74 73 75 79 80 82 83 83 83 83 84 86 91 95 98 100 100 98 92 83 76 69 63 59 56 53 51 50 49 48 49 49 49 47 46 46
Wind_Direction
241 240 238 236 235 234 234 234 235 235 236 237 237 238 239 240 240 241 242 242 243 243 244 245 246 246 247 248 249 249 250 251 252 252 253 254 254 255 256 256 257 257 258 258 259 259 260 260 261 261 261 262 262 263 263 263 264 264 264 264 264 264 264 264 264 264 264 264 264 264 264 264 264 263 263 262 262 261 261 261 261 261 260 260 259 259 259 259
243 243 242 241 239 238 236 235 235 235 235 236 236 237 238 239 239 240 241 242 242 243 244 244 245 246 247 248 249 249 250 251 252 252 253 254 254 255 256 256 257 258 258 258 259 259 260 260 261 261 262 262 262 263 263 263 264 264 264 264 264 264 264 264 264 264 264 264 264 264 264 264 264 263 263 262 262 261 261 261 260 260 259 259 259 259 258 257
238 239 240 241 241 240 239 238 237 236 236 236 236 237 237 238 238 239 240 241 242 243 244 245 246 246 247 248 249 250 250 251 252 253 253 254 255 255 256 257 257 258 258 259 259 259 260 260 261 261 261 261 262 262 262 262 263 263 263 263 263 263 263 263 263 263 263 263 263 263 263 264 263 263 263 262 262 261 260 260 260 259 259 258 258 257 257 256
233 234 234 235 236 237 238 238 238 237 237 236 236 237 237 238 239 240 241 242 243 244 245 246 247 248 248 249 250 251 252 253 254 254 255 255 256 256 257 257 258 258 259 259 260 260 260 260 261 261 261 261 261 261 261 261 261 261 261 261 262 262 262 262 262 262 262 262 262 262 262 263 263 262 262 262 262 261 260 259 259 259 258 258 257 256 256 255
219 229 232 232 231 232 233 235 236 237 238 238 238 238 238 239 240 241 242 243 244 245 246 247 248 249 250 251 252 253 254 255 256 256 257 258 258 258 259 259 259 259 260 260 261 261 261 261 261 262 262 261 261 261 261 261 261 260 260 260 260 260 260 260 260 260 260 260 260 260 260 261 261 261 261 261 260 260 260 259 258 257 257 257 256 255 255 254
115 169 216 228 231 230 230 231 232 234 236 238 239 240 241 241 242 243 244 244 245 246 247 248 250 251 251 253 254 255 256 257 258 258 259 260 260 261 261 261 261 262 262 262 262 263 263 263 264 264 263 263 263 263 263 262 262 261 261 261 260 260 260 259 259 259 259 259 259 259 259 259 259 259 260 259 259 259 259 258 257 256 256 255 255 255 254 253
82 87 97 136 212 228 230 230 230 231 233 236 238 240 242 243 244 245 246 247 247 248 249 250 251 252 253 254 255 257 258 259 260 261 262 262 263 264 264 264 264 265 265 265 265 265 265 265 265 266 265 265 265 265 264 264 264 263 263 263 262 262 261 261 260 260 259 259 258 258 258 258 257 258 258 258 258 257 257 257 256 255 255 254 254 253 253 252
75 76 79 82 87 104 168 215 224 228 231 234 237 241 243 245 246 247 248 249 249 250 251 251 252 253 254 255 257 259 260 261 262 263 264 265 266 267 267 268 268 268 268 268 268 267 267 267 267 267 267 266 266 266 266 265 265 265 264 264 264 263 262 262 261 260 260 259 259 258 257 257 256 257 257 257 256 256 255 255 255 254 254 253 252 252 252 251
74 74 74 74 76 77 80 86 96 120 162 201 223 233 239 243 245 247 249 250 251 252 253 254 255 256 257 258 259 260 262 263 265 266 267 268 268 269 269 270 270 270 270 270 270 270 269 269 268 268 267 267 267 267 266 266 265 265 265 264 264 263 263 262 261 260 260 259 259 258 258 257 256 256 255 256 255 255 254 253 253 253 252 251 251 250 250 249
74 74 74 74 74 74 75 75 77 79 81 84 86 90 101 130 199 230 241 246 249 251 252 253 254 256 257 258 259 261 263 265 267 268 270 271 272 273 273 274 274 274 274 274 274 274 273 273 272 271 271 270 269 269 268 268 267 267 266 265 264 264 263 263 262 261 260 259 258 258 257 257 256 255 255 254 254 254 254 253 252 251 251 250 249 248 248 248
72 72 73 73 73 73 73 74 75 76 76 77 77 78 79 81 84 85 89 109 210 238 247 251 252 254 256 258 261 263 267 270 272 274 276 277 278 279 280 281 281 281 281 281 280 280 279 278 277 276 276 275 274 273 273 272 271 270 269 268 267 266 265 264 263 262 261 260 259 258 257 257 256 255 254 254 253 253 253 252 251 251 250 249 249 248 246 246
72 72 72 73 73 72 72 72 73 73 73 72 71 72 72 74 74 74 74 74 75 76 72 67 7 299 275 270 278 283 286 287 286 287 288 289 290 290 290 290 290 289 289 288 287 286 285 284 283 282 281 281 279 278 277 276 275 274 272 271 270 268 267 266 265 263 262 261 260 259 258 257 256 255 255 254 253 253 252 251 251 250 249 248 248 247 246 245
73 73 73 74 74 73 73 73 73 73 72 72 71 70 71 72 72 72 72 71 72 71 72 71 61 57 65 60 42 16 352 339 331 326 322 320 317 313 310 308 306 304 301 298 296 293 291 289 288 287 287 285 284 283 282 281 279 278 277 275 274 273 271 270 268 266 265 263 262 260 259 257 256 255 254 254 253 252 252 251 250 249 248 247 247 246 246 244
71 71 72 72 72 72 72 72 72 72 72 71 70 70 70 70 69 69 68 66 65 63 63 64 61 65 66 54 44 38 36 32 25 19 14 8 2 356 350 345 340 335 330 325 320 315 311 310 309 305 302 298 295 293 291 288 285 283 281 279 277 276 275 274 273 271 269 267 264 262 260 259 257 255 254 253 252 252 251 251 250 249 248 247 246 245 245 244
67 68 68 69 69 70 70 69 69 69 68 67 67 66 66 65 65 65 63 62 62 59 59 60 59 61 55 43 36 36 35 32 28 25 22 17 13 9 5 1 358 354 350 347 344 341 338 336 332 328 324 320 318 315 311 307 302 298 293 288 284 280 277 275 274 273 272 271 269 267 263 261 259 257 256 254 252 251 250 250 249 249 248 247 245 244 243 243
66 66 66 66 67 67 67 67 67 66 66 65 64 64 63 62 62 62 62 61 60 57 56 55 54 53 47 35 34 35 33 31 28 25 21 17 13 9 6 3 359 357 353 351 347 342 339 337 335 332 329 326 325 324 322 320 317 314 310 304 299 293 288 283 279 275 273 272 271 271 269 266 263 260 258 256 254 252 250 249 248 248 247 246 245 244 242 242
69 68 68 68 68 67 67 67 67 66 66 66 65 64 64 63 63 63 63 63 62 59 58 56 55 54 48 42 43 42 40 38 35 32 29 24 20 16 11 4 359 354 349 345 339 335 334 335 332 328 327 327 328 328 328 327 325 323 319 314 310 305 300 295 291 286 281 277 274 272 271 270 268 265 261 258 256 254 251 249 248 247 246 246 245 244 242 241
71 70 70 70 70 70 70 70 70 70 69 68 68 68 67 67 67 67 66 67 67 65 64 63 63 62 60 59 59 57 56 54 52 51 48 46 45 42 38 33 28 19 13 8 2 353 342 336 333 332 334 335 335 335 334 331 327 323 319 315 311 307 304 301 298 295 292 288 284 279 275 272 270 268 265 261 258 255 253 250 248 247 245 244 244 243 242 241
71 71 71 71 71 71 71 71 72 72 71 71 71 71 71 71 71 70 70 70 70 68 68 67 67 68 67 66 66 65 65 64 63 62 62 61 59 58 57 55 54 52 51 49 46 41 34 31 27 17 6 355 346 340 335 333 331 329 326 321 316 310 307 304 302 299 296 294 291 288 285 281 276 271 268 265 261 257 254 251 249 247 246 244 243 243 242 241
71 71 71 71 71 71 71 71 72 72 72 72 72 72 72 72 71 71 71 71 70 69 69 68 68 68 67 66 65 64 63 62 63 62 62 62 62 61 60 59 58 56 53 51 50 49 50 50 45 39 36 31 25 17 7 358 349 343 339 336 333 328 321 315 310 307 303 300 296 293 290 288 285 280 273 268 264 259 255 252 250 248 247 245 243 242 241 240
70 70 70 70 71 71 71 71 71 71 71 71 70 70 70 70 70 70 71 69 69 69 69 68 68 68 68 67 65 63 61 60 59 58 58 58 59 59 58 57 56 53 51 49 48 47 46 46 43 41 42 41 40 38 35 31 25 17 7 358 351 346 342 337 331 323 317 313 309 304 298 293 290 288 282 273 266 261 256 253 250 247 245 244 243 241 240 239
69 69 69 69 70 70 70 70 70 70 70 69 69 69 69 69 69 68 68 67 67 67 67 67 66 65 65 64 63 62 60 59 58 56 55 54 53 53 53 53 52 51 50 49 47 45 44 43 40 40 39 37 38 37 37 37 35 33 29 25 18 8 360 354 350 344 338 334 330 325 318 309 300 293 288 279 268 261 256 251 249 246 244 243 242 241 240 239
68 68 69 69 69 69 69 69 69 68 68 68 68 67 67 67 66 66 66 66 65 65 65 64 64 63 62 61 60 59 59 58 57 56 55 52 50 49 48 48 48 48 47 46 44 43 42 40 39 38 36 35 35 34 34 34 33 32 32 33 31 28 21 12 3 358 356 353 348 341 334 327 320 309 298 287 274 263 256 251 248 246 243 242 241 241 240 239
67 67 67 67 67 67 67 67 67 66 66 66 66 66 66 65 65 64 64 64 63 63 63 62 62 61 60 59 58 57 57 56 56 55 54 52 50 48 46 44 43 43 43 42 42 42 40 39 37 36 34 34 33 32 32 32 31 30 29 30 31 31 30 26 20 12 6 3 359 355 349 342 336 329 318 302 286 272 260 252 248 245 243 241 240 239 239 239
65 65 65 65 65 64 64 64 64 64 65 65 64 64 64 64 63 63 63 63 62 61 61 60 60 59 59 59 58 57 56 55 55 54 53 51 49 48 47 44 42 41 40 40 41 41 40 38 36 34 33 32 32 32 31 29 29 28 27 28 28 29 30 30 28 24 18 11 6 3 360 356 350 344 337 324 304 285 269 258 250 246 243 241 240 239 238 238
64 64 63 63 62 62 62 62 62 62 63 63 63 63 63 62 62 62 62 61 60 60 59 59 58 58 58 58 57 57 56 55 54 53 51 50 49 48 47 46 44 42 40 39 39 40 39 37 35 33 32 31 30 30 29 28 28 27 26 25 26 27 27 28 28 28 26 22 17 10 5 4 4 359 353 344 328 303 283 266 255 248 244 241 240 239 238 237
63 63 62 62 62 61 61 61 60 60 60 60 60 60 60 60 60 59 59 59 58 58 58 57 57 57 57 57 56 56 55 55 54 53 51 50 49 48 47 46 45 44 42 40 39 38 37 37 35 34 32 30 29 27 26 26 26 26 25 24 23 24 25 26 26 26 26 27 25 21 15 10 8 8 6 1 349 327 303 280 262 251 245 242 240 240 239 238
62 62 62 61 61 61 60 60 59 59 58 58 58 58 57 57 57 57 57 56 56 56 56 55 55 54 54 54 54 54 54 53 53 52 51 50 49 48 46 45 44 43 42 41 40 38 37 36 35 34 33 31 29 26 24 24 24 24 24 23 22 21 22 23 24 24 24 25 26 26 25 21 15 12 10 9 6 353 328 301 278 261 251 245 241 240 239 239
59 59 60 60 60 60 59 59 58 58 57 56 56 56 56 55 55 55 54 54 54 53 53 52 52 52 52 51 51 51 50 50 49 49 49 48 47 47 45 44 43 41 41 41 40 39 37 35 34 33 33 32 30 28 25 23 22 21 22 22 22 20 19 20 21 22 21 22 23 25 27 27 24 19 14 11 10 7 357 333 303 281 265 254 247 243 241 240
56 56 57 58 58 59 58 58 57 57 56 55 54 54 54 54 54 53 53 53 53 52 51 50 49 48 48 48 48 48 47 46 46 45 44 44 44 44 44 43 42 40 40 39 39 38 37 35 33 31 31 31 31 29 27 25 22 21 20 19 20 20 18 17 17 19 19 19 20 21 23 25 26 25 22 17 12 10 7 360 343 315 289 271 259 252 247 244
51 52 53 54 55 56 56 56 55 55 54 52 51 51 50 50 50 50 51 51 51 50 50 49 48 47 46 45 45 45 45 44 43 42 42 41 40 39 39 40 40 39 38 38 37 37 36 35 34 31 29 29 30 30 29 27 24 22 20 18 18 18 18 15 14 14 16 16 17 18 19 21 23 24 24 23 19 14 9 5 360 347 323 294 276 264 256 251
45 46 47 48 49 50 51 51 50 50 50 49 48 47 46 46 45 45 46 46 46 46 46 46 46 46 45 44 43 42 42 41 41 40 39 39 38 37 36 35 36 36 36 35 35 35 35 35 34 33 29 27 27 27 28 28 27 24 21 19 18 17 16 15 13 11 12 14 15 15 16 17 18 21 23 23 22 20 15 9 2 355 345 326 299 280 268 260
43 43 42 42 43 43 44 45 45 45 45 45 45 45 44 43 42 42 42 42 41 41 41 41 41 42 43 43 42 41 40 39 39 38 37 36 36 35 34 33 32 32 33 33 33 33 33 33 33 33 32 28 25 24 25 26 27 26 24 21 19 17 15 15 14 11 10 10 12 13 14 13 14 16 18 20 21 21 19 15 8 359 351 342 328 306 286 272
44 43 42 41 40 39 39 39 39 39 40 40 40 40 41 40 40 39 39 38 38 38 38 37 37 38 38 39 40 39 39 38 37 37 35 34 34 33 32 31 30 29 29 30 31 31 31 31 31 32 33 31 27 24 23 24 24 24 24 22 20 18 16 14 13 12 10 8 8 10 11 11 12 13 14 15 17 18 18 17 14 9 360 348 338 328 312 293
45 44 43 41 40 39 38 37 36 36 36 36 35 35 36 36 36 36 35 35 35 35 35 35 35 35 36 36 36 37 37 36 36 35 34 33 32 32 31 30 29 27 26 26 28 28 29 29 30 30 31 31 30 26 24 23 23 22 22 22 21 19 18 15 12 11 10 8 6 6 7 8 9 10 10 11 12 14 14 14 14 12 9 1 349 335 324 313
43 43 43 42 41 40 39 38 37 36 35 35 34 34 34 34 33 33 32 32 31 31 32 32 33 33 34 34 34 34 35 35 34 34 33 32 31 31 30 30 28 26 24 23 24 25 26 27 28 29 29 29 29 27 25 23 22 21 21 20 20 19 19 16 13 10 9 8 5 3 3 5 6 7 8 8 9 9 10 11 10 10 9 7 2 351 336 321
34 35 36 38 39 39 39 39 39 38 36 35 35 34 34 34 33 32 31 30 30 30 30 30 31 32 32 32 33 33 33 33 33 33 32 31 30 30 29 28 27 26 24 21 21 22 23 24 25 26 27 27 27 26 24 22 21 21 20 19 18 18 17 17 15 11 8 8 6 2 1 1 2 4 5 6 6 6 6 7 7 7 6 4 3 1 353 338
25 26 26 28 29 31 33 36 38 39 38 37 36 36 35 34 33 33 32 31 30 29 29 30 30 30 31 31 32 32 33 33 32 32 32 30 30 29 28 26 26 25 24 21 18 19 21 22 22 22 24 26 26 24 23 21 20 19 19 18 17 16 15 15 14 12 9 8 7 3 359 359 359 0 2 3 3 4 3 3 3 3 3 2 0 359 357 352
20 21 21 22 23 24 26 29 31 34 36 37 37 36 35 35 34 34 33 32 32 30 29 29 29 29 30 31 31 32 32 32 32 32 32 30 29 28 27 26 25 24 23 21 18 16 18 20 21 20 21 23 25 24 22 20 19 18 17 17 15 15 14 13 12 11 9 7 8 6 359 356 357 357 358 359 360 1 1 360 359 359 359 360 359 357 354 352
17 17 17 19 20 22 24 25 26 28 30 32 34 33 33 34 34 33 33 33 33 32 30 29 28 28 29 29 30 31 31 31 31 32 32 31 29 28 27 25 24 23 22 20 18 16 15 17 18 18 18 19 22 24 22 19 18 17 16 15 14 13 12 12 10 10 8 5 6 8 3 356 354 354 354 355 356 357 358 359 357 356 356 355 355 355 354 351
13 13 13 15 17 20 22 23 24 25 26 27 28 29 29 29 29 30 30 30 31 30 30 29 27 27 27 27 28 29 29 29 29 30 30 30 29 28 26 25 23 22 21 19 18 15 14 14 15 16 16 15 17 21 22 20 17 15 14 13 12 12 11 11 9 8 7 5 2 5 6 358 354 353 351 351 353 353 354 356 356 355 354 353 352 351 351 350
10 10 10 12 14 17 20 22 24 25 26 26 26 27 27 25 24 24 23 23 24 25 25 25 24 24 23 23 24 25 26 26 26 27 28 28 28 27 25 23 22 21 20 18 17 15 13 12 13 13 14 14 13 15 19 20 17 14 13 11 10 10 9 9 8 6 6 5 1 360 4 1 354 352 351 349 349 350 350 351 352 353 352 351 350 349 347 346
7 7 8 9 11 13 15 18 20 22 23 23 23 24 25 24 22 20 18 17 16 17 18 18 18 18 18 17 18 19 20 22 22 23 24 24 25 25 24 22 20 19 19 17 16 15 14 13 14 13 13 13 12 11 13 18 17 14 11 10 8 8 7 7 7 5 4 4 1 357 358 1 356 351 350 348 347 347 347 346 347 349 349 348 347 347 345 344
2 4 4 4 6 8 9 11 13 14 16 16 15 15 18 20 21 19 17 15 13 12 13 14 14 13 13 12 13 14 15 17 18 19 19 20 21 22 22 20 18 17 17 15 14 13 12 14 17 18 16 13 12 9 9 13 16 14 11 8 6 6 6 5 5 4 2 2 2 358 355 356 355 351 349 347 345 345 344 343 343 344 345 345 345 344 343 342
355 358 0 0 0 1 2 4 5 6 7 9 9 9 10 13 16 17 16 14 12 10 10 11 12 11 10 10 9 10 11 12 14 15 16 17 18 19 20 19 17 16 15 14 12 10 9 12 16 19 18 14 11 9 7 9 14 14 10 7 5 4 4 4 4 3 2 0 1 359 355 353 352 351 349 346 343 343 342 341 340 341 341 341 341 341 340 339
346 350 354 356 356 355 356 357 358 359 360 1 3 4 5 7 9 12 13 12 10 8 7 8 9 10 9 8 7 7 8 9 11 12 13 14 16 17 18 18 16 14 14 13 11 9 8 8 11 14 16 14 11 8 6 6 9 12 8 4 3 2 2 3 3 2 1 360 359 358 356 352 349 348 347 345 342 341 340 339 338 338 338 338 337 337 337 337
339 342 346 349 350 350 350 351 352 353 353 355 357 359 0 2 3 5 7 8 6 4 4 5 6 8 8 7 6 6 7 7 9 10 11 11 13 14 16 16 14 12 12 11 10 9 7 7 7 8 12 13 10 6 4 3 5 8 6 3 2 1 0 1 2 1 359 358 358 357 356 353 349 345 345 344 341 339 338 337 336 335 335 335 334 334 334 334
333 336 340 343 345 345 345 346 347 348 348 349 352 354 355 358 359 360 1 3 3 1 360 1 2 5 6 5 5 5 6 6 7 8 8 8 9 10 13 14 12 10 10 9 8 7 7 7 7 6 7 11 9 5 2 1 2 4 4 2 1 0 359 359 360 360 358 357 357 356 355 353 350 345 343 342 339 337 336 334 333 333 333 332 332 331 331 331
326 331 335 338 340 341 342 341 342 343 343 344 347 350 351 353 354 356 357 357 358 357 356 356 357 359 1 1 2 2 2 3 4 5 6 6 6 7 8 11 10 8 8 7 6 5 5 8 10 7 5 7 7 5 1 359 1 2 1 360 360 359 358 358 359 359 358 356 355 355 354 352 350 345 342 340 338 336 335 333 331 330 330 330 329 329 328 328
320 324 328 332 335 337 338 338 338 338 338 339 343 345 347 348 349 352 353 353 354 354 353 352 351 352 354 355 356 357 358 358 359 1 2 2 3 4 4 7 8 5 5 4 3 2 3 7 12 10 6 4 4 3 359 357 359 1 359 358 358 357 356 356 357 358 357 355 354 354 353 352 349 346 342 339 336 334 333 332 330 329 328 328 327 327 326 325
317 319 323 326 329 332 334 335 335 335 333 334 338 341 342 344 345 347 348 349 350 351 350 349 347 347 348 349 351 353 354 355 355 356 358 358 359 359 360 2 4 3 1 1 0 359 359 4 11 11 6 2 1 1 358 355 358 360 358 357 357 356 355 355 356 358 357 355 354 353 352 351 349 346 342 339 336 333 331 331 330 328 326 325 325 325 324 323
315 317 319 321 323 326 328 330 331 332 331 330 333 336 338 340 341 342 344 346 347 349 348 346 344 343 344 345 347 349 351 352 352 353 354 355 355 355 355 356 359 359 357 357 356 354 354 359 6 9 6 1 359 359 356 354 357 358 357 356 356 355 355 354 355 357 356 354 354 353 352 350 349 347 343 339 335 332 330 330 329 327 325 324 323 323 323 322
Height
10616 10618 10620 10622 10624 10627 10629 10632 10635 10637 10640 10643 10645 10647 10650 10652 10654 10657 10659 10660 10662 10664 10666 10668 10670 10672 10674 10676 10678 10680 10682 10683 10684 10686 10687 10688 10689 10690 10691 10692 10693 10695 10696 10696 10697 10698 10699 10699 10700 10700 10701 10701 10701 10701 10702 10702 10702 10703 10703 10704 10704 10705 10706 10705 10705 10705 10706 10708 10709 10708 10708 10710 10712 10715 10718 10723 10726 10729 10730 10732 10737 10740 10744 10746 10748 10753 10757 10760
10613 10615 10617 10619 10621 10623 10626 10628 10631 10633 10635 10638 10640 10642 10645 10647 10649 10651 10653 10655 10657 10659 10661 10663 10665 10667 10669 10671 10673 10675 10676 10677 10678 10680 10681 10682 10683 10684 10685 10686 10687 10688 10689 10690 10690 10691 10691 10692 10693 10693 10693 10694 10694 10694 10694 10694 10694 10694 10694 10694 10695 10696 10696 10696 10695 10695 10697 10698 10699 10698 10699 10700 10702 10704 10706 10711 10715 10718 10721 10722 10725 10729 10733 10736 10739 10743 10747 10750
10609 10611 10613 10615 10618 10620 10622 10624 10626 10629 10631 10633 10635 10637 10639 10641 10643 10646 10648 10650 10652 10654 10656 10658 10661 10663 10665 10666 10668 10669 10671 10672 10673 10674 10675 10676 10677 10678 10679 10680 10681 10682 10682 10683 10683 10684 10684 10685 10685 10686 10686 10686 10686 10686 10685 10685 10685 10685 10684 10685 10685 10685 10686 10686 10686 10686 10687 10688 10689 10689 10689 10690 10691 10694 10696 10699 10703 10706 10710 10713 10715 10718 10722 10726 10730 10732 10737 10740
10606 10608 10609 10611 10613 10616 10618 10620 10622 10624 10626 10628 10630 10632 10635 10637 10639 10641 10643 10646 10648 10650 10652 10654 10656 10658 10660 10662 10663 10664 10666 10667 10668 10669 10670 10671 10672 10673 10673 10674 10675 10676 10676 10676 10676 10677 10677 10678 10678 10678 10678 10678 10678 10677 10676 10676 10676 10675 10675 10676 10676 10676 10676 10676 10675 10676 10676 10678 10679 10679 10679 10680 10681 10683 10685 10688 10691 10694 10698 10703 10705 10708 10711 10715 10718 10722 10726 10730
10604 10605 10606 10608 10610 10612 10614 10616 10618 10620 10622 10624 10627 10629 10631 10633 10636 10638 10640 10643 10645 10646 10648 10650 10652 10654 10656 10657 10659 10660 10661 10662 10663 10664 10665 10665 10666 10666 10667 10668 10668 10669 10670 10670 10670 10670 10670 10670 10670 10670 10670 10670 10669 10668 10667 10667 10667 10666 10666 10666 10666 10666 10666 10666 10666 10666 10666 10667 10669 10670 10670 10670 10670 10672 10674 10676 10680 10682 10685 10691 10695 10697 10701 10704 10707 10711 10715 10718
10603 10604 10605 10606 10608 10609 10611 10613 10615 10617 10619 10621 10624 10626 10629 10631 10633 10636 10638 10640 10641 10643 10645 10646 10648 10650 10651 10653 10655 10656 10657 10658 10658 10659 10660 10660 10661 10661 10662 10662 10662 10663 10664 10664 10664 10664 10664 10663 10663 10663 10663 10662 10661 10660 10658 10658 10658 10657 10656 10656 10656 10656 10656 10656 10657 10656 10657 10657 10658 10660 10661 10661 10660 10661 10662 10665 10669 10672 10674 10678 10683 10686 10690 10694 10697 10700 10704 10707
10603 10603 10604 10605 10606 10608 10609 10611 10613 10615 10617 10619 10622 10624 10626 10629 10631 10633 10635 10637 10638 10640 10641 10643 10645 10646 10648 10650 10652 10653 10654 10654 10654 10655 10656 10656 10656 10657 10657 10657 10657 10658 10659 10658 10658 10658 10658 10657 10657 10656 10655 10654 10653 10651 10650 10649 10649 10648 10647 10647 10647 10647 10646 10646 10647 10647 10647 10647 10647 10649 10650 10650 10651 10651 10651 10654 10657 10661 10663 10666 10670 10675 10679 10683 10686 10689 10693 10697
10604 10604 10605 10605 10607 10608 10609 10611 10613 10614 10617 10619 10621 10623 10625 10627 10629 10631 10632 10634 10635 10637 10638 10640 10642 10644 10646 10648 10650 10651 10651 10650 10651 10652 10652 10652 10652 10652 10653 10652 10652 10653 10652 10652 10652 10651 10651 10650 10649 10648 10647 10646 10644 10642 10641 10641 10639 10638 10638 10637 10637 10636 10636 10636 10636 10636 10636 10636 10636 10637 10638 10639 10640 10640 10641 10642 10645 10649 10652 10654 10657 10662 10667 10671 10675 10678 10681 10686
10606 10607 10607 10607 10608 10609 10611 10612 10613 10615 10617 10619 10621 10623 10624 10626 10627 10629 10630 10631 10633 10634 10636 10637 10639 10641 10643 10645 10647 10648 10647 10647 10648 10648 10648 10648 10648 10648 10648 10648 10647 10647 10646 10645 10645 10644 10644 10642 10641 10641 10639 10637 10636 10634 10632 10632 10630 10629 10629 10628 10627 10626 10625 10625 10624 10624 10625 10624 10625 10625 10626 10627 10628 10629 10630 10631 10633 10636 10640 10643 10646 10650 10655 10659 10663 10667 10671 10674
10609 10609 10610 10610 10611 10612 10614 10615 10616 10618 10619 10620 10621 10623 10624 10625 10626 10627 10628 10629 10630 10632 10633 10635 10636 10638 10640 10642 10643 10644 10644 10644 10644 10644 10644 10644 10644 10643 10643 10643 10642 10642 10641 10640 10639 10638 10637 10635 10634 10633 10631 10630 10628 10626 10624 10623 10622 10621 10620 10618 10617 10616 10614 10613 10612 10612 10613 10613 10613 10613 10613 10615 10615 10617 10618 10620 10621 10623 10627 10631 10635 10638 10643 10647 10651 10656 10660 10664
10613 10613 10613 10613 10614 10616 10617 10618 10620 10620 10621 10622 10623 10624 10624 10625 10626 10627 10627 10628 10629 10630 10631 10632 10634 10635 10637 10639 10640 10641 10642 10642 10642 10641 10642 10641 10641 10640 10640 10639 10638 10638 10637 10635 10634 10633 10631 10629 10627 10626 10624 10623 10622 10619 10617 10616 10614 10613 10612 10609 10608 10606 10604 10602 10602 10601 10601 10601 10601 10601 10602 10603 10603 10604 10606 10608 10609 10612 10614 10618 10623 10627 10631 10635 10639 10644 10649 10653
10618 10618 10618 10618 10618 10619 10620 10622 10623 10624 10624 10624 10625 10625 10625 10626 10627 10627 10628 10629 10629 10630 10631 10633 10633 10635 10637 10638 10640 10640 10640 10641 10640 10640 10640 10639 10639 10638 10637 10636 10635 10634 10633 10632 10630 10628 10626 10624 10622 10620 10619 10617 10616 10614 10611 10609 10608 10605 10603 10601 10599 10597 10595 10593 10592 10591 10590 10589 10588 10589 10590 10590 10590 10592 10594 10596 10598 10600 10602 10606 10610 10615 10619 10623 10628 10632 10637 10642
10624 10623 10623 10622 10622 10623 10625 10626 10627 10627 10627 10627 10628 10628 10628 10628 10628 10629 10630 10630 10630 10631 10632 10633 10635 10636 10637 10638 10639 10640 10640 10640 10639 10639 10638 10638 10637 10636 10635 10634 10633 10631 10630 10629 10627 10625 10623 10621 10619 10617 10615 10613 10611 10609 10606 10604 10602 10599 10596 10594 10591 10589 10586 10584 10582 10581 10580 10579 10577 10577 10578 10578 10578 10580 10582 10583 10586 10588 10591 10593 10597 10602 10607 10611 10616 10620 10625 10631
10629 10628 10627 10626 10626 10626 10627 10628 10628 10628 10628 10628 10628 10629 10629 10629 10630 10631 10630 10631 10631 10632 10634 10635 10637 10637 10636 10637 10639 10640 10639 10638 10638 10638 10637 10636 10635 10634 10632 10631 10630 10628 10627 10625 10623 10621 10620 10618 10615 10613 10611 10609 10607 10605 10602 10599 10596 10593 10591 10588 10585 10583 10579 10576 10574 10572 10570 10569 10567 10567 10567 10565 10566 10568 10570 10571 10573 10576 10579 10582 10586 10590 10594 10599 10604 10608 10613 10619
10634 10633 10632 10631 10630 10630 10630 10631 10630 10630 10630 10629 10630 10631 10631 10632 10633 10632 10632 10634 10634 10635 10637 10636 10636 10635 10633 10635 10638 10637 10637 10636 10636 10634 10633 10632 10631 10630 10628 10627 10625 10624 10622 10620 10618 10616 10614 10612 10611 10608 10606 10604 10602 10599 10597 10594 10591 10588 10585 10582 10579 10577 10574 10570 10567 10564 10561 10559 10557 10557 10556 10555 10555 10556 10558 10560 10561 10564 10568 10571 10574 10577 10581 10586 10591 10596 10601 10606
10641 10640 10638 10637 10636 10636 10636 10635 10635 10635 10635 10634 10635 10635 10636 10636 10636 10636 10636 10636 10634 10635 10635 10635 10634 10631 10631 10636 10638 10636 10636 10635 10633 10632 10631 10630 10629 10628 10626 10624 10622 10620 10619 10617 10614 10612 10611 10609 10607 10605 10603 10601 10598 10596 10593 10590 10587 10583 10580 10576 10573 10570 10567 10564 10561 10558 10555 10552 10550 10547 10546 10545 10545 10546 10547 10549 10550 10552 10556 10559 10562 10564 10568 10573 10578 10584 10589 10594
10649 10648 10646 10645 10644 10643 10643 10642 10641 10641 10641 10641 10641 10641 10641 10641 10641 10640 10639 10638 10637 10638 10638 10638 10635 10633 10638 10642 10640 10638 10637 10635 10634 10634 10633 10632 10631 10629 10627 10625 10623 10621 10619 10617 10615 10613 10609 10607 10606 10604 10602 10600 10597 10594 10590 10587 10583 10579 10575 10572 10568 10565 10561 10558 10555 10552 10548 10546 10543 10541 10538 10536 10535 10536 10537 10539 10540 10542 10545 10548 10551 10554 10557 10562 10566 10571 10577 10583
10656 10655 10654 10653 10652 10651 10651 10650 10649 10647 10648 10648 10648 10648 10647 10648 10648 10647 10646 10645 10643 10643 10644 10644 10640 10642 10648 10647 10643 10642 10641 10640 10639 10637 10636 10636 10634 10631 10630 10629 10627 10626 10624 10621 10618 10614 10611 10608 10607 10605 10601 10598 10594 10591 10588 10584 10581 10577 10573 10569 10565 10561 10557 10554 10550 10546 10542 10539 10536 10534 10531 10529 10527 10527 10527 10529 10531 10533 10535 10538 10540 10543 10546 10550 10554 10559 10565 10572
10663 10662 10661 10660 10659 10659 10658 10658 10656 10654 10654 10654 10655 10654 10654 10656 10654 10653 10654 10651 10647 10649 10650 10648 10648 10652 10653 10649 10648 10647 10645 10644 10643 10642 10641 10639 10636 10635 10634 10633 10633 10631 10627 10623 10620 10618 10614 10608 10605 10603 10600 10597 10594 10591 10588 10584 10581 10577 10573 10569 10564 10560 10555 10551 10547 10543 10538 10534 10530 10528 10525 10522 10520 10519 10519 10520 10522 10523 10525 10528 10530 10533 10536 10540 10545 10550 10555 10561
10671 10669 10668 10667 10666 10665 10665 10664 10662 10660 10659 10660 10661 10659 10660 10660 10657 10659 10659 10653 10651 10654 10654 10653 10655 10656 10655 10652 10652 10649 10647 10647 10646 10644 10643 10640 10639 10639 10637 10636 10634 10630 10625 10623 10620 10618 10611 10603 10604 10605 10602 10599 10595 10591 10588 10583 10579 10575 10571 10567 10563 10558 10553 10549 10545 10540 10535 10530 10526 10522 10519 10516 10513 10512 10512 10512 10513 10515 10516 10519 10522 10525 10528 10532 10536 10540 10545 10550
10677 10676 10674 10673 10672 10671 10671 10669 10668 10667 10665 10664 10665 10665 10664 10663 10662 10663 10660 10654 10657 10659 10658 10658 10659 10658 10656 10655 10653 10650 10649 10649 10647 10645 10643 10641 10640 10639 10637 10635 10631 10626 10625 10624 10619 10615 10607 10604 10608 10607 10602 10598 10594 10590 10586 10582 10578 10574 10570 10565 10560 10555 10550 10546 10542 10537 10533 10528 10523 10518 10515 10512 10508 10505 10505 10505 10505 10507 10508 10510 10513 10516 10518 10522 10526 10530 10534 10539
10684 10683 10681 10680 10679 10678 10677 10675 10674 10673 10671 10670 10670 10670 10669 10667 10666 10665 10661 10660 10663 10663 10662 10662 10661 10660 10658 10656 10655 10653 10652 10650 10648 10645 10643 10641 10639 10638 10635 10632 10629 10627 10626 10622 10617 10613 10609 10609 10609 10604 10600 10597 10592 10588 10583 10579 10575 10571 10567 10562 10558 10553 10548 10543 10538 10534 10529 10524 10520 10515 10510 10507 10504 10500 10498 10498 10499 10500 10501 10502 10504 10507 10510 10514 10518 10521 10526 10531
10691 10689 10688 10686 10685 10683 10682 10680 10679 10678 10676 10675 10675 10674 10673 10671 10669 10668 10667 10666 10666 10666 10665 10665 10663 10662 10660 10659 10657 10654 10652 10651 10648 10646 10644 10641 10639 10637 10634 10631 10629 10626 10623 10619 10617 10614 10612 10611 10607 10602 10599 10595 10590 10586 10582 10577 10573 10569 10565 10560 10556 10551 10546 10542 10537 10531 10527 10522 10517 10512 10507 10503 10499 10496 10494 10493 10493 10493 10494 10495 10497 10500 10503 10507 10510 10514 10518 10523
10697 10695 10694 10692 10690 10689 10687 10685 10684 10683 10682 10681 10680 10679 10677 10675 10674 10673 10672 10671 10670 10670 10669 10667 10666 10665 10663 10661 10658 10655 10654 10652 10649 10647 10645 10642 10640 10638 10634 10632 10629 10625 10623 10621 10619 10616 10613 10610 10606 10602 10599 10594 10590 10585 10580 10576 10571 10567 10563 10558 10554 10549 10545 10540 10536 10530 10525 10521 10516 10511 10506 10501 10496 10493 10491 10489 10488 10488 10489 10490 10491 10493 10497 10500 10503 10507 10511 10516
10703 10701 10699 10697 10696 10694 10692 10691 10690 10689 10687 10686 10685 10684 10682 10681 10680 10679 10677 10675 10674 10673 10672 10671 10669 10667 10666 10663 10660 10658 10656 10654 10651 10648 10646 10644 10642 10639 10636 10633 10630 10627 10625 10622 10619 10616 10612 10609 10605 10602 10598 10594 10589 10584 10579 10575 10571 10567 10562 10558 10553 10549 10544 10540 10535 10531 10527 10522 10517 10512 10507 10502 10497 10492 10489 10487 10485 10485 10485 10486 10487 10489 10491 10494 10497 10501 10505 10509
10709 10707 10705 10703 10701 10700 10698 10696 10695 10694 10693 10691 10690 10689 10687 10686 10685 10684 10682 10679 10678 10677 10676 10674 10672 10671 10668 10665 10664 10661 10658 10656 10653 10650 10648 10646 10643 10640 10637 10635 10632 10629 10626 10623 10619 10615 10612 10609 10606 10602 10597 10592 10588 10583 10579 10575 10571 10567 10562 10558 10553 10549 10545 10540 10536 10532 10527 10523 10518 10513 10508 10503 10498 10494 10489 10487 10485 10484 10483 10483 10484 10485 10487 10490 10492 10496 10499 10503
10714 10712 10710 10708 10707 10705 10703 10702 10701 10699 10698 10697 10695 10693 10692 10691 10689 10688 10685 10683 10683 10682 10679 10677 10676 10674 10671 10668 10666 10663 10661 10659 10656 10653 10652 10649 10645 10642 10639 10637 10634 10631 10628 10624 10620 10616 10613 10609 10605 10601 10596 10591 10586 10582 10579 10576 10572 10568 10563 10558 10553 10549 10545 10541 10537 10532 10527 10523 10518 10514 10510 10505 10500 10495 10491 10488 10485 10484 10482 10482 10482 10482 10484 10486 10488 10491 10494 10498
10720 10718 10715 10713 10712 10710 10709 10707 10705 10704 10702 10701 10700 10698 10697 10695 10693 10691 10689 10687 10687 10685 10682 10681 10679 10677 10674 10671 10669 10666 10664 10662 10658 10657 10654 10650 10648 10645 10642 10639 10636 10633 10630 10625 10621 10617 10613 10609 10605 10600 10596 10592 10588 10584 10580 10576 10572 10568 10565 10560 10555 10550 10546 10542 10538 10533 10529 10524 10520 10516 10511 10507 10502 10498 10494 10490 10487 10485 10483 10482 10481 10481 10482 10484 10486 10488 10490 10493
10725 10723 10721 10719 10717 10715 10713 10711 10709 10708 10707 10705 10704 10702 10701 10699 10697 10695 10693 10692 10690 10688 10685 10684 10681 10679 10676 10674 10671 10668 10666 10663 10661 10658 10655 10652 10650 10647 10644 10641 10638 10635 10631 10626 10623 10619 10615 10610 10606 10602 10597 10594 10590 10586 10582 10576 10572 10568 10564 10561 10557 10552 10546 10542 10539 10535 10530 10526 10522 10517 10513 10508 10504 10500 10497 10493 10490 10487 10485 10483 10482 10481 10482 10482 10484 10485 10487 10489
10731 10729 10726 10724 10722 10720 10718 10716 10714 10712 10710 10709 10707 10706 10704 10702 10700 10698 10697 10695 10693 10690 10688 10686 10684 10681 10679 10676 10673 10670 10667 10665 10662 10659 10656 10654 10651 10648 10646 10644 10640 10636 10632 10629 10625 10621 10617 10613 10609 10604 10600 10596 10593 10588 10584 10579 10574 10569 10564 10561 10557 10553 10548 10543 10539 10536 10533 10528 10523 10519 10514 10510 10506 10502 10499 10496 10493 10489 10487 10485 10483 10482 10482 10482 10482 10483 10485 10486
10735 10733 10731 10729 10727 10725 10722 10720 10718 10716 10714 10712 10710 10709 10707 10705 10703 10701 10700 10698 10696 10694 10692 10689 10687 10684 10681 10678 10676 10673 10671 10668 10665 10662 10660 10657 10654 10651 10649 10645 10641 10637 10634 10630 10626 10622 10619 10616 10612 10607 10602 10598 10594 10590 10586 10582 10577 10572 10567 10563 10558 10553 10549 10545 10541 10538 10535 10531 10525 10520 10516 10511 10507 10504 10501 10498 10495 10492 10490 10487 10485 10484 10483 10482 10482 10482 10483 10483
10738 10737 10735 10733 10731 10729 10727 10725 10723 10720 10718 10716 10714 10711 10709 10708 10706 10704 10702 10700 10698 10696 10694 10692 10690 10687 10684 10681 10679 10676 10673 10671 10668 10665 10662 10659 10656 10652 10648 10645 10641 10638 10635 10631 10627 10624 10621 10617 10613 10609 10604 10600 10595 10590 10587 10583 10579 10575 10570 10565 10560 10556 10553 10549 10544 10539 10535 10531 10527 10522 10517 10513 10509 10506 10502 10499 10497 10495 10492 10490 10488 10486 10485 10483 10482 10481 10481 10482
10741 10739 10737 10736 10734 10732 10730 10728 10726 10724 10722 10719 10717 10715 10712 10710 10708 10706 10705 10702 10700 10698 10696 10694 10692 10689 10686 10684 10681 10679 10676 10673 10670 10666 10663 10660 10656 10653 10650 10646 10643 10640 10637 10633 10629 10625 10621 10618 10615 10611 10607 10602 10597 10592 10587 10583 10580 10576 10572 10567 10563 10560 10556 10552 10546 10540 10535 10531 10528 10524 10520 10516 10512 10508 10504 10501 10499 10496 10494 10492 10490 10488 10486 10484 10483 10481 10480 10480
10744 10742 10740 10738 10736 10734 10733 10730 10728 10726 10724 10722 10720 10718 10715 10713 10711 10709 10707 10705 10703 10700 10698 10695 10693 10690 10688 10686 10683 10681 10678 10675 10672 10669 10665 10662 10659 10656 10652 10648 10645 10641 10638 10635 10631 10627 10623 10620 10617 10613 10609 10605 10600 10594 10589 10584 10579 10575 10572 10568 10564 10559 10554 10550 10546 10542 10536 10531 10527 10525 10522 10518 10514 10510 10506 10503 10500 10497 10495 10493 10491 10490 10488 10486 10483 10482 10480 10479
10748 10745 10743 10741 10739 10737 10735 10733 10731 10728 10726 10724 10722 10720 10718 10716 10714 10712 10709 10707 10705 10702 10700 10697 10694 10692 10689 10687 10685 10683 10680 10677 10674 10671 10667 10664 10660 10657 10653 10649 10646 10642 10638 10635 10632 10628 10625 10620 10617 10614 10610 10607 10602 10597 10592 10586 10581 10576 10572 10568 10565 10560 10555 10549 10545 10541 10538 10532 10527 10523 10521 10519 10515 10512 10508 10505 10502 10499 10496 10493 10491 10490 10488 10486 10484 10482 10480 10479
10751 10749 10746 10744 10742 10740 10738 10736 10733 10731 10729 10727 10725 10723 10720 10718 10716 10713 10711 10709 10706 10704 10701 10699 10696 10694 10691 10689 10686 10684 10681 10678 10675 10672 10669 10665 10662 10658 10654 10651 10647 10643 10639 10636 10632 10629 10625 10621 10617 10613 10610 10607 10604 10600 10595 10590 10584 10579 10574 10569 10566 10562 10558 10554 10548 10542 10539 10535 10530 10525 10521 10518 10515 10512 10509 10506 10503 10500 10497 10494 10491 10489 10487 10485 10484 10482 10480 10478
10753 10751 10750 10748 10746 10744 10741 10739 10737 10734 10732 10729 10727 10725 10722 10720 10717 10715 10713 10710 10708 10706 10703 10701 10698 10695 10692 10690 10687 10685 10682 10679 10676 10673 10670 10666 10663 10659 10655 10652 10649 10645 10640 10636 10633 10630 10626 10622 10618 10614 10610 10607 10605 10601 10597 10592 10587 10582 10577 10572 10567 10563 10560 10557 10553 10547 10541 10536 10532 10527 10522 10519 10516 10513 10510 10506 10503 10500 10497 10494 10491 10488 10486 10484 10482 10480 10479 10477
10755 10753 10751 10750 10748 10746 10744 10742 10740 10737 10735 10732 10729 10727 10724 10722 10719 10717 10714 10712 10709 10707 10704 10702 10699 10696 10694 10691 10688 10686 10683 10680 10677 10674 10671 10667 10664 10661 10657 10653 10649 10646 10642 10637 10633 10630 10627 10623 10619 10615 10611 10607 10605 10602 10598 10594 10589 10584 10580 10575 10569 10564 10560 10556 10553 10549 10545 10540 10534 10528 10522 10518 10515 10512 10509 10506 10503 10500 10496 10493 10491 10488 10486 10483 10480 10478 10476 10475
10756 10754 10753 10751 10749 10748 10746 10744 10742 10740 10737 10735 10732 10730 10727 10724 10721 10719 10716 10714 10711 10709 10706 10703 10700 10698 10695 10692 10689 10687 10684 10681 10678 10675 10672 10669 10665 10662 10658 10654 10650 10647 10643 10639 10634 10630 10627 10624 10620 10616 10612 10608 10605 10602 10598 10595 10590 10586 10581 10576 10571 10566 10560 10555 10551 10548 10545 10541 10537 10531 10524 10518 10514 10511 10509 10506 10503 10500 10496 10492 10489 10486 10484 10482 10480 10477 10474 10472
10756 10755 10753 10752 10750 10749 10747 10745 10743 10741 10739 10737 10735 10732 10729 10726 10724 10721 10718 10716 10713 10711 10708 10705 10702 10699 10696 10693 10691 10688 10685 10682 10679 10676 10673 10670 10667 10663 10659 10656 10652 10648 10644 10640 10636 10631 10626 10623 10620 10616 10612 10608 10604 10601 10597 10594 10591 10587 10582 10577 10573 10568 10562 10556 10550 10547 10543 10539 10537 10535 10528 10521 10516 10512 10508 10505 10502 10498 10496 10492 10488 10485 10482 10479 10477 10475 10473 10470
10757 10755 10754 10752 10751 10749 10747 10746 10744 10742 10740 10738 10736 10734 10731 10728 10726 10723 10720 10717 10715 10712 10709 10706 10703 10700 10698 10695 10692 10689 10686 10683 10680 10677 10674 10671 10668 10664 10660 10657 10653 10649 10645 10641 10637 10632 10627 10623 10619 10615 10611 10607 10603 10600 10596 10593 10590 10586 10582 10578 10573 10569 10564 10558 10552 10547 10542 10537 10533 10532 10530 10523 10517 10512 10507 10503 10500 10496 10493 10491 10488 10484 10481 10477 10474 10471 10469 10468
10757 10756 10754 10752 10751 10749 10748 10746 10745 10743 10741 10739 10737 10735 10732 10729 10727 10724 10721 10718 10716 10713 10710 10708 10705 10702 10699 10696 10693 10690 10687 10684 10681 10678 10675 10672 10669 10666 10662 10657 10654 10650 10647 10643 10638 10634 10628 10623 10618 10615 10611 10607 10603 10599 10595 10592 10589 10585 10581 10577 10573 10568 10564 10560 10555 10548 10543 10538 10531 10527 10527 10523 10516 10511 10508 10503 10499 10495 10490 10488 10486 10483 10480 10477 10473 10470 10466 10464
10757 10756 10754 10752 10751 10749 10748 10746 10745 10743 10741 10739 10738 10736 10733 10730 10727 10725 10722 10719 10716 10714 10711 10709 10706 10703 10700 10697 10694 10691 10688 10685 10682 10679 10676 10673 10670 10667 10663 10658 10654 10651 10647 10644 10640 10636 10631 10626 10621 10617 10612 10607 10603 10598 10595 10592 10589 10585 10581 10576 10572 10568 10563 10559 10555 10548 10542 10538 10532 10524 10522 10522 10516 10510 10506 10502 10499 10495 10490 10485 10482 10480 10478 10475 10472 10469 10465 10462
10756 10755 10753 10752 10750 10749 10747 10746 10744 10742 10740 10739 10737 10735 10733 10731 10728 10725 10722 10719 10717 10714 10711 10709 10706 10703 10701 10698 10695 10692 10689 10686 10683 10679 10676 10673 10670 10667 10663 10658 10654 10651 10648 10644 10640 10637 10633 10630 10625 10622 10617 10612 10607 10602 10598 10594 10589 10585 10581 10577 10572 10568 10564 10559 10555 10550 10542 10537 10533 10525 10518 10516 10515 10510 10504 10500 10497 10494 10490 10485 10480 10477 10474 10472 10469 10467 10464 10461
10755 10754 10753 10751 10750 10748 10746 10745 10743 10741 10739 10738 10736 10734 10732 10731 10728 10726 10722 10719 10716 10714 10711 10708 10706 10703 10700 10698 10695 10692 10690 10687 10683 10680 10676 10673 10670 10666 10663 10658 10653 10650 10647 10643 10639 10635 10631 10627 10624 10621 10618 10613 10608 10603 10598 10593 10588 10584 10580 10576 10572 10567 10563 10559 10555 10550 10544 10537 10532 10527 10519 10511 10509 10506 10502 10498 10494 10491 10488 10484 10480 10475 10471 10468 10465 10463 10461 10458
10754 10753 10752 10750 10749 10747 10745 10744 10742 10740 10738 10736 10735 10733 10731 10729 10728 10725 10722 10719 10716 10713 10710 10708 10705 10702 10700 10697 10695 10692 10690 10687 10684 10680 10677 10673 10670 10666 10663 10658 10652 10648 10646 10642 10638 10633 10628 10624 10620 10617 10613 10609 10604 10600 10595 10590 10586 10582 10578 10574 10570 10566 10562 10558 10553 10549 10545 10538 10531 10526 10521 10513 10505 10501 10498 10494 10489 10486 10484 10481 10477 10474 10470 10466 10462 10459 10456 10454
10752 10751 10750 10749 10748 10746 10744 10742 10741 10739 10737 10735 10733 10731 10729 10728 10726 10724 10722 10719 10716 10712 10709 10707 10704 10702 10699 10696 10693 10690 10688 10686 10683 10680 10676 10673 10670 10666 10662 10658 10652 10647 10644 10641 10637 10633 10628 10623 10618 10614 10611 10607 10602 10597 10593 10589 10584 10580 10577 10573 10568 10564 10560 10555 10551 10547 10542 10537 10531 10525 10520 10515 10507 10500 10495 10491 10486 10482 10479 10476 10473 10469 10466 10463 10459 10455 10452 10449
10751 10749 10748 10747 10746 10745 10743 10741 10739 10737 10735 10733 10732 10730 10728 10726 10724 10722 10720 10718 10715 10712 10709 10706 10703 10700 10698 10695 10692 10689 10686 10684 10681 10678 10675 10672 10669 10665 10661 10658 10651 10646 10643 10641 10637 10633 10629 10624 10619 10614 10609 10606 10603 10598 10592 10588 10583 10578 10575 10571 10566 10562 10558 10553 10549 10545 10540 10534 10530 10524 10518 10513 10508 10500 10493 10489 10484 10480 10475 10472 10468 10466 10462 10459 10455 10451 10448 10444
10750 10748 10747 10745 10744 10743 10741 10739 10737 10735 10733 10731 10730 10728 10727 10724 10722 10720 10718 10716 10714 10711 10708 10705 10702 10699 10697 10694 10691 10688 10685 10683 10680 10677 10674 10670 10667 10663 10660 10657 10652 10645 10642 10640 10637 10633 10630 10627 10622 10617 10611 10606 10603 10598 10592 10587 10583 10578 10573 10569 10564 10560 10557 10552 10547 10544 10539 10532 10526 10520 10515 10509 10504 10498 10491 10486 10481 10477 10473 10468 10464 10461 10458 10455 10451 10447 10443 10440
10748 10747 10745 10744 10742 10741 10739 10737 10735 10733 10731 10729 10728 10726 10725 10723 10721 10719 10717 10715 10712 10710 10707 10704 10701 10698 10696 10693 10690 10687 10684 10682 10679 10676 10673 10670 10666 10663 10659 10656 10652 10645 10641 10640 10637 10633 10630 10627 10624 10620 10614 10608 10603 10598 10591 10586 10582 10579 10573 10568 10564 10560 10555 10551 10546 10541 10537 10531 10524 10517 10511 10505 10500 10495 10489 10482 10477 10472 10468 10464 10460 10456 10453 10450 10447 10444 10440 10436
10745 10744 10744 10742 10740 10738 10737 10736 10734 10731 10728 10726 10725 10724 10722 10720 10719 10717 10715 10713 10711 10708 10705 10702 10699 10696 10694 10691 10688 10685 10682 10680 10677 10674 10672 10668 10665 10661 10657 10655 10652 10645 10640 10639 10636 10632 10629 10626 10624 10621 10616 10610 10605 10599 10592 10586 10581 10578 10574 10569 10564 10560 10555 10549 10543 10538 10533 10528 10521 10514 10507 10502 10496 10491 10485 10479 10473 10467 10463 10459 10455 10451 10447 10444 10441 10439 10435 10432
10742 10741 10740 10740 10739 10736 10734 10733 10732 10729 10726 10723 10722 10721 10719 10718 10716 10714 10713 10711 10709 10707 10704 10701 10697 10694 10692 10689 10686 10683 10680 10678 10675 10672 10669 10666 10662 10658 10655 10652 10649 10644 10639 10637 10635 10631 10627 10624 10622 10620 10616 10610 10604 10599 10593 10586 10580 10576 10572 10568 10563 10558 10553 10546 10539 10534 10529 10523 10517 10511 10503 10497 10491 10486 10481 10475 10469 10463 10458 10454 10451 10446 10441 10437 10434 10432 10430 10426